Weather History for K4A6 - November, 2011

Change the Weather History Date:

Tuesday, November 29, 2011

  Actual Average (KHSV) Record (KHSV)
Temperature  
Mean Temperature 37 °F 48 °F  
Max Temperature 39 °F 58 °F 76 °F (1970)
Min Temperature 35 °F 38 °F 13 °F (1955)
Degree Days  
Heating Degree Days 28 17  
Month to date heating degree days 359  
Since 1 July heating degree days 510  
Cooling Degree Days 0 0  
Month to date cooling degree days 7  
Year to date cooling degree days 1947  
Moisture  
Dew Point 33 °F    
Average Humidity 85    
Maximum Humidity 93    
Minimum Humidity 75    
Precipitation  
Precipitation 0.09 in 0.20 in 1.15 in (2001)
Month to date precipitation 4.75  
Year to date precipitation 48.38  
Snow  
Snow 0.00 in - - ()
Month to date snowfall  
Since 1 July snowfall  
Since 1 September snowfall  
Snow Depth -    
Sea Level Pressure  
Sea Level Pressure 29.87 in    
Wind  
Wind Speed 9 mph (WSW)    
Max Wind Speed 15 mph    
Max Gust Speed 23 mph    
Visibility 8 miles    
Events Rain    
T = Trace of Precipitation, MM = Missing Value Source: NWS Daily Summary

Daily Weather History Graph

Daily Weather History Graph

Search for Another Location

Airport or City:

Trip Planner

Search our weather history database for the weather conditions in past years. The results will help you decide how hot, cold, wet, or windy it might be!

Date:

Astronomy

Nov. 29, 2011 Rise Set
Actual Time 6:30 AM CST 4:33 PM CST
Civil Twilight 6:03 AM CST 5:00 PM CST
Nautical Twilight 5:32 AM CST 5:32 PM CST
Astronomical Twilight 5:01 AM CST 6:02 PM CST
Moon 10:21 AM CST (11/29) 9:21 PM CST (11/29)
Length of Visible Light 10h 57m
Length of Day
10h 02m
Waxing Crescent, 24% of the Moon is Illuminated
Nov 29
Waxing Crescent
Dec 2
First Quarter
Dec 10
Full
Dec 17
Last Quarter
Dec 24
New

Hourly Weather History & Observations

Time (CST) Temp. Windchill Dew Point Humidity Pressure Visibility Wind Dir Wind Speed Gust Speed Precip Events Conditions
12:15 AM 35.6 °F 27.5 °F 32.0 °F 87% 29.81 in 9.0 mi SW 11.5 mph 16.1 mph N/A Rain Light Rain
12:35 AM 37.4 °F 31.4 °F 32.0 °F 81% 29.81 in 9.0 mi SW 8.1 mph - N/A   Mostly Cloudy
12:55 AM 37.4 °F 30.8 °F 33.8 °F 87% 29.81 in 7.0 mi SW 9.2 mph 18.4 mph N/A   Mostly Cloudy
1:15 AM 37.4 °F 32.8 °F 33.8 °F 87% 29.80 in 8.0 mi SW 5.8 mph - 0.01 in Rain Light Rain
1:35 AM 37.4 °F 31.4 °F 32.0 °F 81% 29.80 in 7.0 mi SW 8.1 mph - 0.01 in Rain Light Rain
1:55 AM 37.4 °F 32.1 °F 33.8 °F 87% 29.80 in 10.0 mi SW 6.9 mph - 0.01 in Rain Light Rain
2:15 AM 37.4 °F 32.1 °F 33.8 °F 87% 29.80 in 10.0 mi SW 6.9 mph - N/A Rain Light Rain
2:35 AM 37.4 °F 32.8 °F 32.0 °F 81% 29.80 in 10.0 mi SW 5.8 mph - N/A Rain Light Rain
2:55 AM 37.4 °F 30.8 °F 32.0 °F 81% 29.79 in 10.0 mi SW 9.2 mph - N/A   Overcast
3:15 AM 37.4 °F 32.1 °F 32.0 °F 81% 29.79 in 10.0 mi SW 6.9 mph - N/A   Overcast
3:35 AM 37.4 °F 31.4 °F 32.0 °F 81% 29.79 in 10.0 mi SW 8.1 mph - N/A   Overcast
3:55 AM 37.4 °F 32.1 °F 33.8 °F 87% 29.79 in 8.0 mi SW 6.9 mph - N/A Rain Light Rain
4:15 AM 37.4 °F 33.8 °F 33.8 °F 87% 29.79 in 7.0 mi SSW 4.6 mph - 0.01 in Rain Light Rain
4:35 AM 35.6 °F 29.9 °F 33.8 °F 93% 29.79 in 4.0 mi SSW 6.9 mph - 0.02 in Rain Light Rain
4:55 AM 35.6 °F 30.7 °F 33.8 °F 93% 29.79 in 4.0 mi SSW 5.8 mph - 0.03 in Rain Light Rain
5:15 AM 35.6 °F 28.6 °F 33.8 °F 93% 29.79 in 4.0 mi SSW 9.2 mph - 0.01 in Rain Light Rain
5:35 AM 35.6 °F 30.7 °F 32.0 °F 87% 29.79 in 7.0 mi SSW 5.8 mph - 0.02 in Rain Light Rain
5:55 AM 35.6 °F 29.2 °F 33.8 °F 93% 29.80 in 7.0 mi SW 8.1 mph - 0.03 in Rain Light Rain
6:15 AM 35.6 °F 29.2 °F 33.8 °F 93% 29.80 in 3.0 mi SW 8.1 mph - 0.01 in Rain Light Rain
6:35 AM 35.6 °F 30.7 °F 32.0 °F 87% 29.80 in 3.0 mi SW 5.8 mph - 0.02 in Rain Light Rain
6:55 AM 35.6 °F 30.7 °F 32.0 °F 87% 29.80 in 8.0 mi SW 5.8 mph - 0.02 in Rain Light Rain
7:15 AM 35.6 °F 29.2 °F 33.8 °F 93% 29.81 in 5.0 mi SW 8.1 mph - N/A   Mostly Cloudy
7:35 AM 35.6 °F 29.2 °F 33.8 °F 93% 29.81 in 10.0 mi SW 8.1 mph - N/A   Overcast
7:55 AM 37.4 °F 30.8 °F 33.8 °F 87% 29.81 in 10.0 mi SW 9.2 mph - N/A   Mostly Cloudy
8:15 AM 37.4 °F 32.1 °F 33.8 °F 87% 29.83 in 10.0 mi SW 6.9 mph 16.1 mph N/A   Overcast
8:35 AM 37.4 °F 30.8 °F 33.8 °F 87% 29.83 in 10.0 mi SW 9.2 mph - N/A   Mostly Cloudy
8:55 AM 37.4 °F 29.8 °F 33.8 °F 87% 29.82 in 10.0 mi SW 11.5 mph 19.6 mph N/A   Overcast
9:15 AM 37.4 °F 30.8 °F 32.0 °F 81% 29.84 in 10.0 mi SW 9.2 mph - N/A   Overcast
9:35 AM 37.4 °F 31.4 °F 32.0 °F 81% 29.83 in 10.0 mi SW 8.1 mph - N/A   Overcast
9:55 AM 39.2 °F 33.0 °F 32.0 °F 75% 29.84 in 10.0 mi WSW 9.2 mph - N/A   Overcast
10:35 AM 37.4 °F 29.8 °F 32.0 °F 81% 29.85 in 10.0 mi WSW 11.5 mph 16.1 mph N/A   Mostly Cloudy
10:55 AM 37.4 °F 29.8 °F 32.0 °F 81% 29.85 in 7.0 mi WSW 11.5 mph 16.1 mph N/A   Overcast
11:15 AM 37.4 °F 29.3 °F 32.0 °F 81% 29.85 in 8.0 mi WSW 12.7 mph 20.7 mph N/A Rain Light Rain
11:35 AM 37.4 °F 28.5 °F 32.0 °F 81% 29.85 in 10.0 mi WSW 15.0 mph 19.6 mph N/A   Overcast
11:55 AM 37.4 °F 30.8 °F 32.0 °F 81% 29.85 in 10.0 mi WSW 9.2 mph 16.1 mph N/A   Mostly Cloudy
12:35 PM 37.4 °F 28.9 °F 32.0 °F 81% 29.85 in 10.0 mi WSW 13.8 mph 17.3 mph N/A   Overcast
1:55 PM 39.2 °F 32.5 °F 32.0 °F 75% 29.86 in 9.0 mi WSW 10.4 mph - N/A   Overcast
2:15 PM 39.2 °F 32.5 °F 32.0 °F 75% 29.87 in 9.0 mi WSW 10.4 mph - N/A   Unknown
2:35 PM 39.2 °F 32.5 °F 33.8 °F 81% 29.88 in 10.0 mi West 10.4 mph - N/A   Mostly Cloudy
2:55 PM 39.2 °F 33.6 °F 33.8 °F 81% 29.89 in 10.0 mi West 8.1 mph 23.0 mph N/A   Mostly Cloudy
3:15 PM 39.2 °F 32.0 °F 33.8 °F 81% 29.91 in 10.0 mi WSW 11.5 mph - N/A   Overcast
3:35 PM 39.2 °F 35.0 °F 33.8 °F 81% 29.92 in 10.0 mi West 5.8 mph - N/A   Overcast
3:55 PM 39.2 °F 31.6 °F 33.8 °F 81% 29.93 in 10.0 mi West 12.7 mph 18.4 mph N/A   Overcast
4:15 PM 37.4 °F 30.8 °F 33.8 °F 87% 29.94 in 10.0 mi West 9.2 mph - N/A   Overcast
4:35 PM 37.4 °F 30.8 °F 35.6 °F 93% 29.95 in 1.8 mi West 9.2 mph - N/A Rain Light Rain
4:55 PM 37.4 °F 30.3 °F 33.8 °F 87% 29.95 in 5.0 mi West 10.4 mph - N/A Rain Light Rain
5:15 PM 37.4 °F 32.1 °F 35.6 °F 93% 29.96 in 4.0 mi West 6.9 mph - N/A Rain Light Rain
5:35 PM 37.4 °F 32.1 °F 35.6 °F 93% 29.97 in 4.0 mi West 6.9 mph - N/A Rain Light Rain
5:55 PM 37.4 °F 32.8 °F 33.8 °F 87% 29.98 in 8.0 mi West 5.8 mph - N/A Rain Light Rain
6:15 PM 37.4 °F 30.8 °F 33.8 °F 87% 30.00 in 7.0 mi West 9.2 mph - N/A Rain Light Rain
6:35 PM 37.4 °F 33.8 °F 33.8 °F 87% 30.01 in 7.0 mi West 4.6 mph - N/A Rain Light Rain
6:55 PM 37.4 °F 32.8 °F 33.8 °F 87% 30.02 in 5.0 mi West 5.8 mph - N/A Rain Light Rain
7:35 PM 37.4 °F 32.1 °F 33.8 °F 87% 30.03 in 6.0 mi West 6.9 mph - N/A Rain Light Rain
7:55 PM 37.4 °F 32.8 °F 33.8 °F 87% 30.03 in 7.0 mi West 5.8 mph - N/A Rain Light Rain
8:15 PM 37.4 °F 32.1 °F 33.8 °F 87% 30.04 in 7.0 mi West 6.9 mph - N/A   Overcast
8:35 PM 37.4 °F 31.4 °F 33.8 °F 87% 30.04 in 8.0 mi West 8.1 mph - N/A   Mostly Cloudy
8:55 PM 37.4 °F 32.1 °F 33.8 °F 87% 30.04 in 10.0 mi West 6.9 mph - N/A   Mostly Cloudy
9:15 PM 37.4 °F 31.4 °F 33.8 °F 87% 30.05 in 10.0 mi West 8.1 mph - N/A   Mostly Cloudy
9:35 PM 37.4 °F 33.8 °F 32.0 °F 81% 30.05 in 10.0 mi West 4.6 mph - N/A   Overcast
9:55 PM 37.4 °F 34.9 °F 32.0 °F 81% 30.04 in 10.0 mi West 3.5 mph - N/A   Overcast
10:15 PM 37.4 °F 33.8 °F 33.8 °F 87% 30.05 in 10.0 mi West 4.6 mph - N/A   Overcast
10:35 PM 37.4 °F 32.8 °F 33.8 °F 87% 30.05 in 10.0 mi West 5.8 mph - N/A   Overcast
10:55 PM 37.4 °F 33.8 °F 33.8 °F 87% 30.06 in 10.0 mi WNW 4.6 mph - N/A   Overcast
11:35 PM 37.4 °F 32.8 °F 33.8 °F 87% 30.05 in 10.0 mi WNW 5.8 mph - N/A   Overcast
11:55 PM 37.4 °F 32.8 °F 33.8 °F 87% 30.05 in 9.0 mi West 5.8 mph - N/A   Overcast